PulseSat

PulseSat

MOLNIYA 3-41

Last updated on Feb. 13, 2019, 3:03 a.m. UTC

1 21706U 91065A   19043.43613719  .00001020  00000-0 -14983-1 0  9998
2 21706  64.3764 297.4185 6947986 269.3873 343.4863  2.04339003201986
UTC
Height (km)
Latitude
Longitude
Inclination
Orbital Period

Next 30 passes for location: Hong Kong

Rise time Rise Azimuth (degrees) Set time Set Azimuth (degrees) Duration Max altitude (degrees)

No matching passes for this satellites

PulseSat

PulseSat is the new satellites software and hardware trackering solution by Pulsely.
Satellite Two Line Element Set source: US Air Force Space Command

Download PulseSat for iOS
© 2017 Pulsely Limited